Showing default

BLUE RING PATHFINDER, 62720

Orbit data source: Space-Track

BLUE RING PATHFINDER, 62720 is a payload satellite owned by Blue Origin (US) in HEO that was launched on Thu, 16 Jan 2025 UTC via an NEW GLENN 7X2 launch vehicle from the Air Force Eastern Test Range (AFETR). Payload-class satellites include a variety of spacecraft equipped with specific instruments for various scientific and technological missions. These include communications satellites like Starlink; space stations such as the ISS; scientific satellites like the Hubble; Earth observation satellites from companies like Planet Labs, Umbra, and HawkEye 360; GPS; miniature CubeSats for education and research; and military/defense satellites.

Loading next visibility...
Identifier
62720, 2025-011A
Orbit
HEO
Country
Flag of USUS
Related business
Manufacturer
Blue Origin
Mission
Non-operational Commercial Technology
Bus & Motor
BLUE RING, Unknown motor
Mass
~33,980 kg wet, ~3,980 kg dry
Launch date (UTC)
2025-01-16 (1 year ago)
Launch vehicle
NEW GLENN 7X2
Launch site
Air Force Eastern Test Range (AFETR)
Object type
Payload
Rocket body
Debris
Shape & HBR
Cyl + Ann Cyl + Box, 14.5 m
Radar Cross Section
272.300 m², Large (>1 m²)

Expand to show TLE details & history
Last TLE update: 15 hours ago

TLE from 15 hours ago
0 BLUE RING PATHFINDER
1 62720U 25011A   26171.24186685  .00000014  00000-0  00000+0 0  9997
2 62720  29.7970 156.6842 4899962 289.0911  25.2843  3.84311375 19999
Epoch: 2026-06-20T05:48Z
TLE epoch observation values (Epoch: 2026-06-20T05:48:17.295Z)
Latitude
-0.00007°
Longitude
161.13893°
Altitude
4,894.293 km
Speed
6.897 km/s
True Right ascension
10h 26m 40s
True Declination
0° 00' 00"
Sunlit
Object was in daylight at epoch
Visualization orbit readout
Latitude
Unknown
Longitude
Unknown
Altitude
Unknown
Speed
Unknown
Apparent Right ascension
Unknown
Apparent Declination
Unknown
Sunlit
N/A
Visualization observer readout
Local Sidereal Time
07:24:15
Azimuth
Unknown
Elevation
Unknown
Doppler factor
Unknown
Orbital elements
Apogee altitude
19,278.109 km
Perigee altitude
2,403.619 km
Semi-major axis
17,219.001 km
Eccentricity
0.49
Inclination
29.797°
RAAN
156.6842°
Arg. of periapsis
289.0911°
True anomaly
70.87391°
Mean anomaly
25.2843°
Eccentric anomaly
45.20809°
Mean motion
0.96057 °/min
Orbital period
374.78 mins
BSTAR
0
Loading maneuver chart data...
Computing Atmospheric mass density...
Loading historical data...
Loading historical data...
Loading historical data...
Loading historical data...
Loading historical data...
Loading historical data...
Loading historical data...
Other satellites on launch #11 in the year 2025 (2025-01-16 UTC)

Documentation

Showing up to 5 results
|